This is the latest recevied weather packets stored in our database for station/object N4WFF. If no packets are shown the sender has not sent any weather packets the latest 10 day(s).
| Time | Temp. | Humidity | Pressure | Rain* | Wind** | Luminosity | Snow |
|---|---|---|---|---|---|---|---|
| 1777772455 | 13.33° C | 76% | 1016.4 hPa | 0 mm | - | 0 W/m² | - |
| 1777772156 | 13.89° C | 77% | 1016.3 hPa | 0 mm | - | 0 W/m² | - |
| 1777771857 | 13.89° C | 74% | 1016.2 hPa | 0 mm | - | 0 W/m² | - |
| 1777771555 | 14.44° C | 73% | 1016.1 hPa | 0 mm | - | 0 W/m² | - |
| 1777771257 | 15° C | 75% | 1016.1 hPa | 0 mm | - | 0 W/m² | - |
| 1777770955 | 15° C | 66% | 1015.9 hPa | 0 mm | - | 0 W/m² | - |
| 1777770655 | 15.56° C | 62% | 1015.9 hPa | 0 mm | - | 0 W/m² | - |
| 1777770355 | 16.11° C | 63% | 1015.8 hPa | 0 mm | - | 0 W/m² | - |
| 1777770056 | 16.11° C | 59% | 1015.7 hPa | 0 mm | - | 0 W/m² | - |
| 1777769755 | 16.11° C | 55% | 1015.6 hPa | 0 mm | - | 0 W/m² | - |
| 1777769455 | 16.67° C | 54% | 1015.4 hPa | 0 mm | - | 0 W/m² | - |
| 1777769155 | 16.67° C | 54% | 1015.3 hPa | 0 mm | - | 0 W/m² | - |
| 1777768855 | 16.67° C | 54% | 1015.2 hPa | 0 mm | - | 0 W/m² | - |
| 1777768556 | 17.22° C | 52% | 1015.1 hPa | 0 mm | - | 1 W/m² | - |
| 1777768255 | 17.22° C | 52% | 1015 hPa | 0 mm | - | 3 W/m² | - |
| 1777767956 | 17.78° C | 52% | 1014.9 hPa | 0 mm | - | 4 W/m² | - |
| 1777767657 | 17.78° C | 51% | 1014.8 hPa | 0 mm | - | 7 W/m² | - |
| 1777767356 | 17.78° C | 50% | 1014.8 hPa | 0 mm | - | 11 W/m² | - |
| 1777767056 | 18.33° C | 49% | 1014.7 hPa | 0 mm | - | 16 W/m² | - |
| 1777766756 | 18.33° C | 48% | 1014.7 hPa | 0 mm | - | 19 W/m² | - |
| 1777766455 | 18.33° C | 47% | 1014.6 hPa | 0 mm | - | 23 W/m² | - |
| 1777766156 | 18.89° C | 46% | 1014.5 hPa | 0 mm | - | 27 W/m² | - |
| 1777765856 | 18.89° C | 45% | 1014.5 hPa | 0 mm | - | 30 W/m² | - |
| 1777765556 | 18.89° C | 45% | 1014.4 hPa | 0 mm | - | 34 W/m² | - |
| 1777765256 | 19.44° C | 44% | 1014.3 hPa | 0 mm | - | 37 W/m² | - |
* Rain latest hour (hover to see other rain measurements)
** Current wind speed in m/s (hover to see current wind gust speed)